Forside
METAR-TAF:

METAR-TAF

Lufthavne :

Boone Municipal Airport

Boone, Iowa, USA

Breddekreds: 42-03N, længdekreds: 093-51W, højde: 354 m

Aktuelle vejr

Denne rapport blev lavet for 15 minutter siden, kl. 14:15 UTC
Vind 8 kt fra nord
Temperatur 16°C
Fugtighed 100%
Tryk 1008 hPa
Sigt: 14.5 km
skyfri

METAR: KBNW 081415Z AUTO 35008KT 9SM CLR 16/16 A2976 RMK AO2

Tid: 09:30 (14:30 UTC)


TAF: fraværende

Vejrobservationer og prognoser fra mere end 4000 lufthavne (METAR og TAF).

De gule og røde prikker repræsenterer de meteorologiske stationer.

Flyt musen over at se navnet på stationen.

Så klik over at se vejr observationer og prognoser.

At skifte det kort: Klik på de grønne knapper med et sort kors for at zoome ind; på den grønne knap med en bindestreg for at zoome ud; eller på de grønne pile for tilstødende kort.


METAR-TAF: